| time (UTC) | temp C | wind direction | speed KPH | gust KPH | rain 1hr cm | rain 24hr cm | rain mn cm | humidity % | barometer mb |
| 20260504044511 | 11 | 190 | 4.8 | 12.9 | 0.00 | 0.00 | 0.00 | 69 | 1008.6 |
| 20260504043102 | 11 | 267 | 6.4 | 14.5 | 0.00 | 0.00 | 0.00 | 68 | 1008.5 |
| 20260504041607 | 11 | 281 | 8.0 | 17.7 | 0.00 | 0.00 | 0.00 | 67 | 1008.5 |
| 20260504040056 | 11 | 209 | 6.4 | 16.1 | 0.00 | 0.00 | 0.00 | 67 | 1008.6 |
| 20260504034609 | 12 | 231 | 4.8 | 14.5 | 0.00 | 0.00 | 0.00 | 66 | 1008.6 |
| 20260504033056 | 12 | 190 | 6.4 | 11.3 | 0.00 | 0.00 | 0.00 | 66 | 1008.5 |
| 20260504031553 | 11 | 214 | 4.8 | 17.7 | 0.00 | 0.00 | 0.00 | 67 | 1008.5 |
| 20260504030052 | 11 | 194 | 4.8 | 11.3 | 0.00 | 0.00 | 0.00 | 67 | 1008.7 |
| 20260504024553 | 12 | 209 | 4.8 | 11.3 | 0.00 | 0.00 | 0.00 | 67 | 1008.7 |
| 20260504023050 | 12 | 225 | 6.4 | 17.7 | 0.00 | 0.00 | 0.00 | 66 | 1008.8 |
| 20260504021552 | 12 | 201 | 6.4 | 14.5 | 0.00 | 0.00 | 0.00 | 65 | 1008.9 |
| 20260504020056 | 12 | 227 | 6.4 | 14.5 | 0.00 | 0.00 | 0.00 | 66 | 1009.0 |
| 20260504014547 | 12 | 252 | 8.0 | 20.9 | 0.00 | 0.00 | 0.00 | 66 | 1009.1 |
| 20260504013105 | 11 | 274 | 4.8 | 12.9 | 0.00 | 0.00 | 0.00 | 69 | 1009.2 |
| 20260504011546 | 11 | 286 | 4.8 | 20.9 | 0.00 | 0.00 | 0.00 | 70 | 1009.2 |
| 20260504010046 | 11 | 223 | 6.4 | 19.3 | 0.00 | 0.00 | 0.00 | 70 | 1009.2 |
| 20260504004546 | 11 | 287 | 8.0 | 19.3 | 0.00 | 0.00 | 0.00 | 70 | 1009.1 |
| 20260504003045 | 11 | 284 | 6.4 | 16.1 | 0.00 | 0.00 | 0.00 | 73 | 1009.2 |
| 20260504001548 | 11 | 328 | 8.0 | 19.3 | 0.00 | 0.00 | 0.00 | 73 | 1009.4 |
| 20260504000044 | 11 | 285 | 14.5 | 25.7 | 0.00 | 0.00 | 0.00 | 72 | 1009.5 |
| 20260503234543 | 11 | 292 | 8.0 | 22.5 | 0.00 | 0.00 | 0.00 | 72 | 1009.5 |
| 20260503233045 | 11 | 269 | 11.3 | 25.7 | 0.00 | 0.00 | 0.00 | 69 | 1009.4 |
| 20260503231542 | 12 | 263 | 16.1 | 27.4 | 0.00 | 0.00 | 0.00 | 67 | 1009.1 |
| 20260503230043 | 12 | 277 | 11.3 | 24.1 | 0.00 | 0.00 | 0.00 | 69 | 1009.5 |
| 20260503224540 | 12 | 186 | 11.3 | 29.0 | 0.00 | 0.00 | 0.00 | 68 | 1009.3 |
| 20260503223041 | 12 | 241 | 11.3 | 30.6 | 0.00 | 0.00 | 0.00 | 66 | 1009.2 |
| 20260503221546 | 12 | 327 | 11.3 | 24.1 | 0.00 | 0.00 | 0.00 | 66 | 1009.0 |
| 20260503220040 | 12 | 269 | 11.3 | 20.9 | 0.00 | 0.00 | 0.00 | 66 | 1009.1 |
| 20260503214541 | 12 | 254 | 9.7 | 20.9 | 0.00 | 0.00 | 0.00 | 66 | 1009.0 |
| 20260503213043 | 13 | 240 | 8.0 | 24.1 | 0.00 | 0.00 | 0.00 | 62 | 1009.0 |
| 20260503211537 | 13 | 142 | 14.5 | 27.4 | 0.00 | 0.00 | 0.00 | 61 | 1008.9 |
| 20260503210036 | 13 | 286 | 12.9 | 30.6 | 0.00 | 0.00 | 0.00 | 61 | 1009.0 |
| 20260503204537 | 13 | 284 | 11.3 | 25.7 | 0.00 | 0.00 | 0.00 | 62 | 1008.9 |
| 20260503203037 | 13 | 306 | 11.3 | 32.2 | 0.00 | 0.00 | 0.00 | 60 | 1009.2 |
| 20260503201532 | 13 | 281 | 11.3 | 32.2 | 0.00 | 0.00 | 0.00 | 59 | 1009.4 |
| 20260503200031 | 13 | 279 | 14.5 | 29.0 | 0.00 | 0.00 | 0.00 | 59 | 1009.7 |
| 20260503194529 | 13 | 295 | 12.9 | 24.1 | 0.00 | 0.00 | 0.00 | 58 | 1009.7 |
| 20260503193041 | 13 | 250 | 8.0 | 24.1 | 0.00 | 0.00 | 0.00 | 59 | 1010.0 |
| 20260503191549 | 12 | 277 | 9.7 | 20.9 | 0.00 | 0.00 | 0.00 | 58 | 1010.2 |
| 20260503190032 | 12 | 288 | 9.7 | 24.1 | 0.00 | 0.00 | 0.00 | 58 | 1010.5 |
| 20260503184518 | 13 | 277 | 14.5 | 20.9 | 0.00 | 0.00 | 0.00 | 56 | 1010.8 |
| 20260503183016 | 12 | 300 | 11.3 | 20.9 | 0.00 | 0.00 | 0.00 | 58 | 1010.9 |
| 20260503181513 | 12 | 296 | 11.3 | 20.9 | 0.00 | 0.00 | 0.00 | 56 | 1011.3 |
| 20260503180012 | 11 | 295 | 11.3 | 27.4 | 0.00 | 0.00 | 0.00 | 56 | 1011.5 |
| 20260503174509 | 11 | 262 | 9.7 | 24.1 | 0.00 | 0.00 | 0.00 | 57 | 1011.8 |
| 20260503173009 | 11 | 244 | 12.9 | 22.5 | 0.00 | 0.00 | 0.00 | 60 | 1011.8 |
| 20260503171507 | 11 | 278 | 11.3 | 20.9 | 0.00 | 0.00 | 0.00 | 56 | 1011.9 |
| 20260503160107 | 10 | 297 | 8.0 | 24.1 | 0.00 | 0.00 | 0.00 | 64 | 1012.8 |
| 20260503100106 | 0 | 286 | 0.0 | 1.6 | 0.00 | 0.00 | 0.00 | 100 | 1013.6 |
| 20260503081550 | 1 | 210 | 3.2 | 6.4 | 0.00 | 0.00 | 0.00 | 100 | 1013.6 |
| 20260503071544 | 2 | 200 | 3.2 | 9.7 | 0.00 | 0.00 | 0.00 | 100 | 1013.7 |
| 20260503054540 | 3 | 279 | 4.8 | 12.9 | 0.00 | 0.00 | 0.00 | 95 | 1013.9 |
| 20260503053030 | 3 | 265 | 3.2 | 9.7 | 0.00 | 0.00 | 0.00 | 94 | 1014.1 |
| 20260503051523 | 3 | 303 | 4.8 | 9.7 | 0.00 | 0.00 | 0.00 | 94 | 1014.2 |
| 20260503050023 | 3 | 279 | 4.8 | 14.5 | 0.00 | 0.00 | 0.00 | 93 | 1014.3 |